This is the latest recevied weather packets stored in our database for station/object KMASWX. If no packets are shown the sender has not sent any weather packets the latest 10 day(s).
| Time | Temp. | Humidity | Pressure | Rain* | Wind** | Luminosity | Snow |
|---|---|---|---|---|---|---|---|
| 1778020985 | 27.78° C | 20% | - | 0 mm | - | - | - |
| 1778020678 | 27.22° C | 19% | - | 0 mm | - | - | - |
| 1778020375 | 27.22° C | 19% | - | 0 mm | - | - | - |
| 1778020071 | 27.22° C | 19% | - | 0 mm | - | - | - |
| 1778019764 | 27.78° C | 18% | - | 0 mm | - | - | - |
| 1778019459 | 26.67° C | 19% | - | 0 mm | - | - | - |
| 1778018851 | 26.67° C | 20% | - | 0 mm | - | - | - |
| 1778018547 | 27.22° C | 19% | - | 0 mm | - | - | - |
| 1778018243 | 27.78° C | 19% | - | 0 mm | - | - | - |
| 1778017636 | 26.67° C | 19% | - | 0 mm | - | - | - |
| 1778017026 | 26.67° C | 23% | - | 0 mm | - | - | - |
| 1778016722 | 26.11° C | 19% | - | 0 mm | - | - | - |
| 1778016112 | 26.67° C | 20% | - | 0 mm | - | - | - |
| 1778015808 | 26.67° C | 19% | - | 0 mm | - | - | - |
| 1778015505 | 27.22° C | 19% | - | 0 mm | - | - | - |
| 1778015198 | 26.67° C | 19% | - | 0 mm | - | - | - |
| 1778014591 | 26.11° C | 21% | - | 0 mm | - | - | - |
| 1778014284 | 26.11° C | 19% | - | 0 mm | - | - | - |
| 1778013980 | 26.67° C | 19% | - | 0 mm | - | - | - |
| 1778013676 | 25.56° C | 20% | - | 0 mm | - | - | - |
| 1778013372 | 25.56° C | 21% | - | 0 mm | - | - | - |
| 1778013066 | 25.56° C | 20% | - | 0 mm | - | - | - |
| 1778012762 | 26.11° C | 20% | - | 0 mm | - | - | - |
| 1778012458 | 25.56° C | 21% | - | 0 mm | - | - | - |
| 1778012152 | 25° C | 20% | - | 0 mm | - | - | - |
* Rain latest 24 hours (hover to see other rain measurements)
** Current wind speed in m/s (hover to see current wind gust speed)